Hourly Weather Roundup
Issued by NWS Central Illinois

Home | Current Version | Previous Version | Text Only | Print | Product List | Glossary On
Versions: 1 2 3 4 5 6 7 8 9 10 11 12 13 14 15 16 17 18 19 20 21 22 23 24 25 26 27 28 29 30 31 32 33 34 35 36 37 38 39 40 41 42 43 44 45 46 47 48 49 50
000
NZUS43 KILX 221810
HWRILX

AREA WEATHER ROUNDUP
NATIONAL WEATHER SERVICE, LINCOLN IL
100 PM CDT WED MAR 22 2017


CITY           SKY/WX    TMP DP  RH WIND       PRES   REMARKS
BLOOMINGTON    SUNNY     37  14  38 E16       30.54S WCI  28
6HR MIN TEMP:  25; 6HR MAX TEMP:  37;

CHAMPAIGN      SUNNY     39  15  37 NE16G24   30.52F WCI  30
6HR MIN TEMP:  27; 6HR MAX TEMP:  39;

DECATUR        SUNNY     41  13  31 NE17      30.51F WCI  32
6HR MIN TEMP:  27; 6HR MAX TEMP:  41;

EFFINGHAM      SUNNY     44  22  41 NE6       30.49F
6HR MIN TEMP:  31; 6HR MAX TEMP:  44;

FLORA          SUNNY     45  20  37 E13G18    30.46F
6HR MIN TEMP:  34; 6HR MAX TEMP:  45;

GALESBURG      SUNNY     39  22  50 SE10G17   30.51F WCI  32
6HR MIN TEMP:  26; 6HR MAX TEMP:  39;

JACKSONVILLE   SUNNY     42  16  34 E15G22    30.50F WCI  35
6HR MIN TEMP:  26; 6HR MAX TEMP:  42;

LACON          MOSUNNY   37  22  54 E10G18    30.54F WCI  30
6HR MIN TEMP:  28; 6HR MAX TEMP:  38;

LAWRENCEVILLE  SUNNY     45  18  34 NE9       30.47F
6HR MIN TEMP:  31; 6HR MAX TEMP:  46; 6HR PCP: TRACE;

LITCHFIELD     SUNNY     42  17  37 NE7G18    30.47F
6HR MIN TEMP:  30; 6HR MAX TEMP:  42;

$$


CITY           SKY/WX    TMP DP  RH WIND       PRES   REMARKS
LINCOLN        SUNNY     40  16  37 E12G20    30.52F WCI  33
6HR MIN TEMP:  30; 6HR MAX TEMP:  40;

MACOMB         SUNNY     41  18  40 E13G18    30.53F WCI  33
6HR MIN TEMP:  25; 6HR MAX TEMP:  41;

MATTOON        SUNNY     42  15  33 E15G22    30.48F WCI  34
6HR MIN TEMP:  26; 6HR MAX TEMP:  42;

MT CARMEL AP   SUNNY     44  17  33 NE17      30.45F
6HR MIN TEMP:  33; 6HR MAX TEMP:  46;

OLNEY-NOBLE AP SUNNY     43  21  42 E14       30.47F
PARIS          SUNNY     38  21  49 E15G21    30.52F WCI  30
6HR MIN TEMP:  28; 6HR MAX TEMP:  38;

PEORIA         SUNNY     38  20  48 E9        30.54F WCI  31
6HR MIN TEMP:  29; 6HR MAX TEMP:  39;

PONTIAC        MOSUNNY   36  24  62 E8G20     30.56F WCI  29
6HR MIN TEMP:  29; 6HR MAX TEMP:  36;

RANTOUL        SUNNY     38  21  50 E13G22    30.53F WCI  30
6HR MIN TEMP:  29; 6HR MAX TEMP:  38;

SPRINGFIELD    SUNNY     44  12  27 E16G23    30.51F
6HR MIN TEMP:  30; 6HR MAX TEMP:  45;

TAYLORVILLE    SUNNY     42  12  29 E10       30.49F
6HR MIN TEMP:  29; 6HR MAX TEMP:  42;

$$

...REGIONAL REPORTS...


CITY           SKY/WX    TMP DP  RH WIND       PRES   REMARKS
CHICAGO O`HARE MOSUNNY   35  18  49 E12G22    30.57F WCI  27
KANKAKEE       SUNNY     36  12  37 NE5       30.57F WCI  32
MOLINE         SUNNY     41  18  39 E15G25    30.53F WCI  33
MOUNT STERLING SUNNY     41  18  38 E16G22    30.48F WCI  33
MOUNT VERNON   SUNNY     46  24  42 NE14      30.44F
PITTSFIELD     SUNNY     44  19  36 E13G18    30.49F
QUINCY         SUNNY     43  20  39 E12       30.47F
ROCKFORD       MOSUNNY   38  15  39 E8        30.58F WCI  32
$$


CITY           SKY/WX    TMP DP  RH WIND       PRES   REMARKS
BURLINGTON     SUNNY     42  23  46 E13       30.50F
CEDAR RAPIDS   SUNNY     38  17  42 E8        30.50F WCI  32
DES MOINES     CLOUDY    41  25  53 SE12      30.47S WCI  34
KIRKSVILLE     CLOUDY    43  24  47 SE12      30.44F
OTTUMWA        SUNNY     42  24  49 SE12      30.47F
ST LOUIS       PTSUNNY   47  21  35 NE10      30.45F
$$


CITY           SKY/WX    TMP DP  RH WIND       PRES   REMARKS
TERRE HAUTE    SUNNY     41  17  38 NE13      30.50F WCI  34
EVANSVILLE     SUNNY     50  21  32 E13       30.43F
INDIANAPOLIS   MOSUNNY   37  13  37 E13G24    30.51F WCI  29
LAFAYETTE      SUNNY     34  18  52 E9        30.55F WCI  27
MADISON        MOSUNNY   33  12  41 E9        30.57F WCI  25
MILWAUKEE      CLOUDY    33  16  49 NE8       30.60S WCI  26
$$





USA.gov is the U.S. government's official web portal to all federal, state and local government web resources and services.